This is the latest recevied weather packets stored in our database for station/object WI0K. If no packets are shown the sender has not sent any weather packets the latest 10 day(s).
| Time | Temp. | Humidity | Pressure | Rain* | Wind** | Luminosity | Snow |
|---|---|---|---|---|---|---|---|
| 1788060912 | 20° C | 51% | 1020.1 hPa | 0 mm | - | 0 W/m² | - |
| 1788060612 | 20° C | 51% | 1020.2 hPa | 0 mm | - | 0 W/m² | - |
| 1788060311 | 20° C | 52% | 1020.1 hPa | 0 mm | - | 0 W/m² | - |
| 1788060010 | 20° C | 52% | 1020.1 hPa | 0 mm | - | 0 W/m² | - |
| 1788059710 | 20° C | 52% | 1020.1 hPa | 0 mm | - | 0 W/m² | - |
| 1788059409 | 20° C | 53% | 1020.1 hPa | 0 mm | - | 0 W/m² | - |
| 1788059108 | 20° C | 53% | 1020.3 hPa | 0 mm | - | 0 W/m² | - |
| 1788058808 | 20° C | 53% | 1020.3 hPa | 0 mm | - | 0 W/m² | - |
| 1788058507 | 20° C | 53% | 1020.4 hPa | 0 mm | - | 0 W/m² | - |
| 1788058206 | 20.56° C | 53% | 1020.7 hPa | 0 mm | - | 0 W/m² | - |
| 1788057906 | 20.56° C | 53% | 1020.5 hPa | 0 mm | - | 0 W/m² | - |
| 1788057605 | 20.56° C | 53% | 1020.5 hPa | 0 mm | - | 0 W/m² | - |
| 1788057304 | 20.56° C | 52% | 1020.5 hPa | 0 mm | - | 0 W/m² | - |
| 1788057003 | 21.11° C | 52% | 1020.5 hPa | 0 mm | - | 0 W/m² | - |
| 1788056703 | 21.11° C | 52% | 1020.7 hPa | 0 mm | - | 0 W/m² | - |
| 1788056402 | 21.67° C | 50% | 1020.3 hPa | 0 mm | - | 0 W/m² | - |
| 1788056101 | 22.22° C | 50% | 1019.8 hPa | 0 mm | - | 0 W/m² | - |
| 1788055801 | 22.78° C | 49% | 1019.8 hPa | 0 mm | - | 0 W/m² | - |
| 1788055500 | 23.89° C | 47% | 1019.7 hPa | 0 mm | - | 0 W/m² | - |
| 1788055199 | 25.56° C | 42% | 1019.2 hPa | 0 mm | - | 0 W/m² | - |
| 1788054899 | 25.56° C | 42% | 1018.5 hPa | 0 mm | - | 0 W/m² | - |
| 1788054598 | 25.56° C | 42% | 1018.4 hPa | 0 mm | - | 0 W/m² | - |
| 1788054297 | 25.56° C | 42% | 1018.3 hPa | 0 mm | - | 0 W/m² | - |
| 1788053997 | 25.56° C | 41% | 1018.3 hPa | 0 mm | - | 1 W/m² | - |
| 1788053696 | 25.56° C | 42% | 1018.3 hPa | 0 mm | - | 1 W/m² | - |
* Rain latest hour (hover to see other rain measurements)
** Current wind speed in m/s (hover to see current wind gust speed)